Location: Arthez
(43.0833°N, 0.2500°W)
Time: 01:30:04
(UTC+00:00)

NOSS 3-1 (A) - Pass Details

Date: 01 June 2022
Orbit: 711 x 1501 km, 63.4° (Epoch: 21 May)

Event Time Altitude Azimuth Distance (km) Brightness Sun altitude
Rises 22:05:00 0° 325° (NW) 3,890 8.2 -19.7°
Reaches altitude 10° 22:07:33 10° 329° (NNW) 3,039 7.3 -19.9°
Maximum altitude 22:14:54 59° 49° (NE) 1,483 4.4 -20.5°
Enters shadow 22:20:22 24° 120° (ESE) 2,563 5.2 -20.9°
